GFSGL_prec_precacc_027.txt.gz
Total_Precipitation_Accumulation
0.00 0.00 0.00 0.00 0.01 0.01 0.00 0.00 0.00 0.00 0.00 0.00 0.00 0.00 0.00 0.00 0.00 0.00 0.00 0.00 0.00 0.00 0.00 0.00 0.00 0.00 0.00 0.00 0.00 0.00 0.00 0.00 0.00 0.00 0.00 0.00 0.00 0.00 0.00 0.00 0.00 0.01 0.02
0.00 0.00 0.00 0.00 0.00 0.00 0.00 0.00 0.00 0.00 0.00 0.00 0.00 0.00 0.00 0.00 0.00 0.00 0.00 0.00 0.00 0.00 0.00 0.00 0.00 0.00 0.00 0.00 0.00 0.00 0.00 0.00 0.00 0.02 0.00 0.00 0.00 0.00 0.00 0.00 0.01 0.02 0.01
0.00 0.00 0.00 0.00 0.00 0.00 0.00 0.00 0.00 0.00 0.00 0.00 0.00 0.00 0.00 0.00 0.00 0.00 0.00 0.00 0.00 0.00 0.00 0.00 0.00 0.00 0.00 0.00 0.00 0.00 0.00 0.00 0.01 0.03 0.01 0.00 0.00 0.03 0.04 0.01 0.00 0.00 0.00
0.00 0.00 0.00 0.00 0.00 0.01 0.00 0.00 0.00 0.00 0.00 0.00 0.00 0.00 0.00 0.00 0.00 0.00 0.00 0.00 0.00 0.00 0.00 0.00 0.00 0.00 0.00 0.00 0.00 0.00 0.01 0.01 0.01 0.02 0.12 0.13 0.13 0.07 0.03 0.01 0.00 0.00 0.00
0.00 0.00 0.00 0.00 0.01 0.00 0.00 0.00 0.00 0.00 0.00 0.00 0.00 0.00 0.00 0.00 0.00 0.00 0.00 0.00 0.00 0.00 0.00 0.00 0.00 0.00 0.00 0.00 0.01 0.01 0.02 0.04 0.18 0.34 0.30 0.23 0.10 0.02 0.00 0.00 0.01 0.02 0.02
0.01 0.01 0.00 0.00 0.00 0.00 0.00 0.00 0.00 0.00 0.00 0.00 0.00 0.00 0.00 0.00 0.00 0.00 0.00 0.00 0.00 0.00 0.00 0.00 0.00 0.00 0.00 0.00 0.01 0.03 0.06 0.23 0.33 0.41 0.33 0.12 0.01 0.00 0.01 0.05 0.16 0.14 0.08
0.05 0.02 0.01 0.00 0.00 0.00 0.00 0.00 0.00 0.00 0.00 0.00 0.00 0.00 0.00 0.00 0.00 0.00 0.00 0.00 0.00 0.00 0.00 0.00 0.00 0.00 0.00 0.00 0.01 0.06 0.18 0.25 0.23 0.13 0.03 0.01 0.02 0.05 0.23 0.22 0.11 0.09 0.05
0.18 0.21 0.07 0.00 0.00 0.00 0.00 0.00 0.00 0.00 0.00 0.00 0.00 0.00 0.00 0.00 0.00 0.00 0.00 0.00 0.00 0.00 0.00 0.00 0.00 0.00 0.01 0.03 0.08 0.21 0.15 0.09 0.01 0.00 0.01 0.03 0.08 0.09 0.08 0.08 0.07 0.09 0.05
0.08 0.06 0.01 0.00 0.00 0.00 0.00 0.00 0.00 0.00 0.00 0.00 0.00 0.00 0.00 0.00 0.00 0.00 0.00 0.00 0.00 0.00 0.00 0.00 0.02 0.02 0.02 0.10 0.15 0.22 0.07 0.00 0.00 0.01 0.07 0.05 0.01 0.00 0.01 0.13 0.20 0.18 0.12
0.00 0.00 0.00 0.00 0.00 0.00 0.00 0.00 0.00 0.00 0.00 0.00 0.00 0.00 0.00 0.00 0.00 0.00 0.00 0.00 0.00 0.00 0.00 0.00 0.01 0.02 0.05 0.21 0.13 0.03 0.01 0.01 0.07 0.06 0.01 0.00 0.00 0.00 0.01 0.04 0.19 0.50 0.22
0.00 0.00 0.00 0.00 0.00 0.00 0.00 0.00 0.00 0.00 0.00 0.00 0.00 0.00 0.00 0.00 0.00 0.00 0.00 0.00 0.00 0.01 0.01 0.01 0.00 0.05 0.16 0.12 0.03 0.00 0.02 0.03 0.03 0.00 0.00 0.00 0.00 0.01 0.01 0.01 0.07 0.44 0.63
0.00 0.00 0.00 0.00 0.00 0.00 0.00 0.00 0.00 0.00 0.00 0.00 0.00 0.00 0.00 0.00 0.00 0.00 0.00 0.01 0.03 0.03 0.02 0.01 0.04 0.13 0.07 0.00 0.00 0.02 0.03 0.02 0.00 0.00 0.01 0.01 0.02 0.02 0.01 0.01 0.02 0.06 0.19
0.00 0.00 0.00 0.00 0.00 0.00 0.00 0.00 0.00 0.00 0.00 0.00 0.00 0.00 0.00 0.00 0.00 0.00 0.00 0.01 0.03 0.04 0.03 0.07 0.09 0.02 0.00 0.00 0.00 0.01 0.01 0.00 0.01 0.05 0.05 0.03 0.03 0.03 0.03 0.03 0.02 0.01 0.03
0.00 0.00 0.00 0.00 0.00 0.00 0.00 0.00 0.00 0.00 0.00 0.00 0.00 0.00 0.00 0.00 0.00 0.00 0.00 0.01 0.02 0.03 0.05 0.11 0.02 0.00 0.00 0.00 0.00 0.00 0.00 0.00 0.04 0.09 0.09 0.04 0.02 0.03 0.05 0.07 0.14 0.06 0.14
0.00 0.00 0.00 0.00 0.00 0.00 0.00 0.00 0.00 0.00 0.00 0.00 0.00 0.00 0.00 0.00 0.00 0.01 0.02 0.02 0.03 0.05 0.04 0.00 0.00 0.00 0.00 0.00 0.00 0.00 0.00 0.00 0.04 0.06 0.10 0.09 0.05 0.04 0.05 0.05 0.17 0.22 0.24
0.00 0.00 0.00 0.00 0.00 0.00 0.00 0.00 0.00 0.00 0.00 0.00 0.00 0.00 0.00 0.00 0.00 0.01 0.02 0.04 0.06 0.03 0.00 0.00 0.00 0.00 0.00 0.00 0.00 0.01 0.01 0.02 0.05 0.09 0.08 0.09 0.14 0.13 0.14 0.09 0.15 0.22 0.25
0.00 0.00 0.00 0.00 0.00 0.00 0.00 0.00 0.00 0.00 0.00 0.00 0.00 0.00 0.00 0.00 0.00 0.01 0.03 0.04 0.01 0.00 0.00 0.00 0.01 0.01 0.01 0.01 0.01 0.04 0.05 0.04 0.09 0.11 0.13 0.17 0.21 0.15 0.13 0.14 0.15 0.16 0.13
0.00 0.00 0.00 0.00 0.00 0.00 0.00 0.00 0.00 0.00 0.00 0.00 0.00 0.00 0.00 0.00 0.00 0.02 0.02 0.01 0.00 0.00 0.01 0.02 0.02 0.01 0.01 0.03 0.05 0.09 0.11 0.06 0.06 0.10 0.17 0.17 0.17 0.20 0.15 0.15 0.14 0.18 0.17
0.00 0.00 0.00 0.00 0.00 0.00 0.00 0.00 0.00 0.00 0.00 0.00 0.00 0.00 0.00 0.00 0.00 0.01 0.00 0.00 0.01 0.01 0.01 0.01 0.01 0.01 0.03 0.06 0.08 0.11 0.13 0.16 0.19 0.21 0.14 0.15 0.15 0.22 0.13 0.10 0.12 0.10 0.14
0.00 0.00 0.00 0.00 0.00 0.00 0.00 0.00 0.00 0.00 0.00 0.00 0.00 0.00 0.00 0.00 0.01 0.00 0.00 0.00 0.01 0.01 0.01 0.01 0.01 0.01 0.05 0.11 0.14 0.13 0.12 0.07 0.10 0.10 0.11 0.14 0.14 0.19 0.23 0.15 0.11 0.14 0.10
0.00 0.00 0.00 0.00 0.00 0.00 0.00 0.00 0.00 0.00 0.00 0.00 0.00 0.00 0.00 0.01 0.00 0.00 0.00 0.01 0.01 0.01 0.02 0.02 0.01 0.03 0.09 0.12 0.12 0.10 0.09 0.06 0.09 0.16 0.15 0.16 0.18 0.21 0.14 0.14 0.12 0.13 0.15
0.00 0.00 0.00 0.00 0.00 0.00 0.00 0.00 0.00 0.00 0.00 0.00 0.00 0.00 0.00 0.00 0.00 0.00 0.01 0.01 0.00 0.01 0.01 0.02 0.03 0.06 0.20 0.28 0.27 0.19 0.08 0.05 0.08 0.15 0.13 0.15 0.17 0.15 0.13 0.11 0.10 0.14 0.11
0.00 0.00 0.00 0.00 0.00 0.00 0.00 0.00 0.00 0.00 0.00 0.00 0.00 0.00 0.00 0.00 0.00 0.00 0.01 0.00 0.01 0.01 0.00 0.01 0.07 0.11 0.08 0.16 0.24 0.37 0.36 0.22 0.23 0.25 0.27 0.19 0.18 0.20 0.20 0.18 0.15 0.12 0.05
0.00 0.00 0.00 0.00 0.00 0.00 0.00 0.00 0.00 0.00 0.00 0.00 0.00 0.00 0.00 0.00 0.00 0.00 0.00 0.01 0.01 0.00 0.00 0.02 0.10 0.15 0.14 0.13 0.17 0.25 0.38 0.41 0.44 0.54 0.65 0.59 0.36 0.22 0.17 0.10 0.10 0.10 0.04
0.00 0.00 0.00 0.00 0.00 0.00 0.00 0.00 0.00 0.00 0.00 0.00 0.00 0.00 0.01 0.01 0.01 0.01 0.01 0.01 0.01 0.00 0.00 0.02 0.09 0.17 0.18 0.19 0.21 0.23 0.23 0.32 0.47 0.44 0.23 0.21 0.17 0.13 0.13 0.08 0.06 0.04 0.03
0.00 0.00 0.00 0.00 0.00 0.00 0.00 0.00 0.00 0.00 0.01 0.01 0.01 0.01 0.01 0.01 0.01 0.02 0.01 0.01 0.01 0.00 0.00 0.02 0.07 0.13 0.14 0.14 0.15 0.18 0.20 0.29 0.28 0.14 0.10 0.10 0.09 0.06 0.05 0.04 0.02 0.02 0.01

GFSGL_prec_precacc_030.txt.gz
Total_Precipitation_Accumulation
0.00 0.00 0.00 0.00 0.01 0.01 0.01 0.00 0.01 0.01 0.00 0.00 0.00 0.00 0.00 0.00 0.00 0.00 0.00 0.00 0.00 0.00 0.00 0.00 0.00 0.00 0.00 0.00 0.00 0.00 0.00 0.00 0.00 0.00 0.00 0.00 0.00 0.00 0.00 0.00 0.00 0.01 0.02
0.00 0.00 0.00 0.01 0.01 0.01 0.01 0.01 0.01 0.01 0.00 0.00 0.00 0.00 0.00 0.00 0.00 0.00 0.00 0.00 0.00 0.00 0.00 0.00 0.00 0.00 0.00 0.00 0.00 0.00 0.00 0.00 0.00 0.02 0.00 0.00 0.00 0.00 0.00 0.00 0.01 0.02 0.01
0.00 0.00 0.00 0.01 0.01 0.00 0.01 0.01 0.01 0.00 0.00 0.00 0.00 0.00 0.00 0.00 0.00 0.00 0.00 0.00 0.00 0.00 0.00 0.00 0.00 0.00 0.00 0.00 0.00 0.00 0.00 0.00 0.01 0.03 0.01 0.00 0.00 0.03 0.04 0.01 0.00 0.00 0.00
0.00 0.00 0.00 0.01 0.01 0.01 0.01 0.01 0.00 0.00 0.00 0.00 0.00 0.00 0.00 0.00 0.00 0.00 0.00 0.00 0.00 0.00 0.00 0.00 0.00 0.00 0.00 0.00 0.00 0.00 0.01 0.01 0.01 0.02 0.12 0.13 0.13 0.07 0.03 0.01 0.00 0.00 0.00
0.00 0.00 0.00 0.00 0.01 0.01 0.01 0.01 0.00 0.00 0.00 0.00 0.00 0.00 0.00 0.00 0.00 0.00 0.00 0.00 0.00 0.00 0.00 0.00 0.00 0.00 0.00 0.00 0.01 0.01 0.02 0.04 0.18 0.34 0.30 0.24 0.11 0.02 0.00 0.00 0.01 0.02 0.02
0.01 0.01 0.00 0.00 0.01 0.02 0.01 0.01 0.03 0.01 0.00 0.00 0.00 0.00 0.00 0.00 0.00 0.00 0.00 0.00 0.00 0.00 0.00 0.00 0.00 0.00 0.00 0.00 0.01 0.03 0.06 0.23 0.33 0.42 0.34 0.14 0.01 0.00 0.01 0.05 0.16 0.14 0.09
0.05 0.02 0.02 0.02 0.02 0.02 0.07 0.04 0.00 0.00 0.00 0.00 0.00 0.00 0.00 0.00 0.00 0.00 0.00 0.00 0.00 0.00 0.00 0.00 0.00 0.00 0.00 0.00 0.01 0.06 0.19 0.25 0.24 0.13 0.04 0.01 0.02 0.05 0.23 0.23 0.12 0.10 0.06
0.19 0.25 0.17 0.14 0.14 0.08 0.08 0.03 0.00 0.00 0.00 0.00 0.00 0.00 0.00 0.00 0.00 0.00 0.00 0.00 0.00 0.00 0.00 0.00 0.00 0.00 0.01 0.03 0.08 0.21 0.15 0.09 0.01 0.00 0.01 0.03 0.08 0.09 0.08 0.12 0.11 0.10 0.05
0.24 0.34 0.41 0.32 0.18 0.05 0.04 0.01 0.00 0.00 0.00 0.00 0.00 0.00 0.00 0.00 0.00 0.00 0.00 0.00 0.00 0.00 0.00 0.00 0.02 0.02 0.02 0.10 0.16 0.22 0.07 0.00 0.00 0.01 0.07 0.05 0.01 0.00 0.01 0.13 0.20 0.19 0.12
0.29 0.15 0.16 0.07 0.04 0.00 0.00 0.00 0.00 0.00 0.00 0.00 0.00 0.00 0.00 0.00 0.00 0.00 0.00 0.00 0.00 0.00 0.00 0.00 0.01 0.02 0.05 0.21 0.14 0.03 0.01 0.01 0.07 0.06 0.01 0.00 0.00 0.00 0.01 0.04 0.19 0.53 0.23
0.16 0.03 0.01 0.00 0.00 0.00 0.00 0.00 0.00 0.00 0.00 0.00 0.00 0.00 0.00 0.00 0.00 0.00 0.00 0.00 0.00 0.01 0.01 0.01 0.00 0.05 0.16 0.12 0.03 0.00 0.02 0.03 0.03 0.00 0.00 0.00 0.00 0.01 0.01 0.01 0.07 0.46 0.68
0.01 0.00 0.00 0.00 0.00 0.00 0.00 0.00 0.00 0.00 0.00 0.00 0.00 0.00 0.00 0.00 0.00 0.00 0.00 0.01 0.03 0.03 0.02 0.01 0.04 0.13 0.07 0.00 0.00 0.02 0.03 0.02 0.00 0.00 0.01 0.01 0.02 0.02 0.01 0.01 0.02 0.06 0.20
0.00 0.00 0.00 0.00 0.00 0.00 0.00 0.00 0.00 0.00 0.00 0.00 0.00 0.00 0.00 0.00 0.00 0.00 0.00 0.01 0.03 0.04 0.03 0.07 0.09 0.02 0.00 0.00 0.00 0.01 0.01 0.00 0.01 0.05 0.05 0.03 0.03 0.03 0.03 0.03 0.02 0.01 0.03
0.00 0.00 0.00 0.00 0.00 0.00 0.00 0.00 0.00 0.00 0.00 0.00 0.00 0.00 0.00 0.00 0.00 0.00 0.00 0.01 0.02 0.03 0.05 0.11 0.02 0.00 0.00 0.00 0.00 0.00 0.00 0.00 0.04 0.09 0.09 0.04 0.02 0.03 0.05 0.07 0.15 0.06 0.15
0.00 0.00 0.00 0.00 0.00 0.00 0.00 0.00 0.00 0.00 0.00 0.00 0.00 0.00 0.00 0.00 0.00 0.01 0.02 0.02 0.03 0.05 0.04 0.00 0.00 0.00 0.00 0.00 0.00 0.00 0.00 0.00 0.04 0.06 0.10 0.10 0.06 0.05 0.05 0.05 0.17 0.23 0.26
0.00 0.00 0.00 0.00 0.00 0.00 0.00 0.00 0.00 0.00 0.00 0.00 0.00 0.00 0.00 0.00 0.00 0.01 0.02 0.04 0.06 0.03 0.00 0.00 0.00 0.00 0.00 0.00 0.00 0.01 0.01 0.02 0.06 0.10 0.09 0.10 0.15 0.14 0.15 0.10 0.15 0.23 0.26
0.00 0.00 0.00 0.00 0.00 0.00 0.00 0.00 0.00 0.00 0.00 0.00 0.00 0.00 0.00 0.00 0.00 0.01 0.03 0.04 0.01 0.00 0.00 0.00 0.01 0.01 0.01 0.01 0.01 0.04 0.05 0.04 0.09 0.13 0.14 0.17 0.22 0.16 0.13 0.15 0.15 0.16 0.14
0.00 0.00 0.00 0.00 0.00 0.00 0.00 0.00 0.00 0.00 0.00 0.00 0.00 0.00 0.00 0.00 0.00 0.02 0.02 0.01 0.00 0.00 0.01 0.02 0.02 0.01 0.01 0.03 0.05 0.09 0.11 0.07 0.07 0.10 0.18 0.18 0.19 0.22 0.16 0.15 0.14 0.20 0.19
0.00 0.00 0.00 0.00 0.00 0.00 0.00 0.00 0.00 0.00 0.00 0.00 0.00 0.00 0.00 0.00 0.00 0.01 0.00 0.00 0.01 0.01 0.01 0.01 0.01 0.01 0.03 0.06 0.09 0.12 0.14 0.16 0.21 0.23 0.15 0.16 0.16 0.25 0.14 0.10 0.12 0.11 0.15
0.00 0.00 0.00 0.00 0.00 0.00 0.00 0.00 0.00 0.00 0.00 0.00 0.00 0.00 0.00 0.00 0.01 0.00 0.00 0.00 0.01 0.01 0.01 0.01 0.01 0.01 0.05 0.12 0.15 0.13 0.13 0.08 0.11 0.11 0.12 0.16 0.16 0.21 0.26 0.17 0.12 0.16 0.11
0.00 0.00 0.00 0.00 0.00 0.00 0.00 0.00 0.00 0.00 0.00 0.00 0.00 0.00 0.00 0.01 0.00 0.00 0.00 0.01 0.01 0.01 0.02 0.02 0.01 0.03 0.09 0.13 0.13 0.11 0.10 0.07 0.10 0.18 0.16 0.17 0.20 0.24 0.16 0.16 0.13 0.13 0.16
0.00 0.00 0.00 0.00 0.00 0.00 0.00 0.00 0.00 0.00 0.00 0.00 0.00 0.00 0.00 0.00 0.00 0.00 0.01 0.01 0.00 0.01 0.01 0.02 0.03 0.07 0.21 0.30 0.29 0.21 0.08 0.06 0.09 0.17 0.14 0.16 0.18 0.16 0.14 0.11 0.12 0.17 0.14
0.00 0.00 0.00 0.00 0.00 0.00 0.00 0.00 0.00 0.00 0.00 0.00 0.00 0.00 0.00 0.00 0.00 0.00 0.01 0.00 0.01 0.01 0.00 0.01 0.07 0.11 0.08 0.18 0.27 0.41 0.39 0.25 0.26 0.26 0.30 0.21 0.20 0.22 0.23 0.21 0.18 0.14 0.05
0.00 0.00 0.00 0.00 0.00 0.00 0.00 0.00 0.00 0.00 0.00 0.00 0.00 0.00 0.00 0.00 0.00 0.00 0.00 0.01 0.01 0.00 0.00 0.02 0.11 0.17 0.16 0.14 0.19 0.26 0.40 0.46 0.48 0.58 0.71 0.62 0.38 0.23 0.18 0.11 0.10 0.11 0.04
0.00 0.00 0.00 0.00 0.00 0.00 0.00 0.00 0.00 0.00 0.00 0.00 0.00 0.00 0.01 0.01 0.01 0.01 0.01 0.01 0.01 0.00 0.00 0.02 0.10 0.19 0.19 0.21 0.23 0.24 0.24 0.34 0.49 0.45 0.24 0.21 0.17 0.13 0.13 0.08 0.06 0.05 0.03
0.00 0.00 0.00 0.00 0.00 0.00 0.00 0.00 0.00 0.00 0.01 0.01 0.01 0.01 0.01 0.01 0.01 0.02 0.01 0.01 0.01 0.00 0.01 0.02 0.08 0.15 0.16 0.15 0.15 0.18 0.21 0.30 0.29 0.14 0.10 0.10 0.09 0.06 0.05 0.04 0.02 0.02 0.01

GFSGL_prec_precacc_033.txt.gz
Total_Precipitation_Accumulation
0.02 0.00 0.00 0.01 0.02 0.01 0.01 0.01 0.01 0.01 0.01 0.01 0.01 0.01 0.00 0.00 0.00 0.00 0.00 0.00 0.00 0.00 0.00 0.00 0.00 0.00 0.00 0.00 0.00 0.00 0.00 0.00 0.00 0.00 0.00 0.00 0.00 0.00 0.00 0.00 0.00 0.01 0.02
0.01 0.00 0.00 0.01 0.01 0.01 0.01 0.01 0.01 0.02 0.02 0.01 0.02 0.00 0.00 0.00 0.00 0.00 0.00 0.00 0.00 0.00 0.00 0.00 0.00 0.00 0.00 0.00 0.00 0.00 0.00 0.00 0.00 0.02 0.00 0.00 0.00 0.00 0.00 0.00 0.01 0.02 0.01
0.00 0.01 0.01 0.01 0.01 0.00 0.01 0.02 0.02 0.02 0.02 0.01 0.00 0.00 0.00 0.00 0.00 0.00 0.00 0.00 0.00 0.00 0.00 0.00 0.00 0.00 0.00 0.00 0.00 0.00 0.00 0.00 0.01 0.03 0.01 0.00 0.00 0.03 0.04 0.01 0.00 0.00 0.00
0.03 0.02 0.01 0.01 0.01 0.02 0.02 0.03 0.02 0.01 0.01 0.01 0.00 0.00 0.00 0.00 0.00 0.00 0.00 0.00 0.00 0.00 0.00 0.00 0.00 0.00 0.00 0.00 0.00 0.00 0.01 0.01 0.01 0.02 0.12 0.13 0.13 0.07 0.03 0.01 0.00 0.00 0.00
0.05 0.03 0.00 0.00 0.01 0.01 0.02 0.02 0.02 0.01 0.01 0.00 0.01 0.01 0.00 0.00 0.00 0.00 0.00 0.00 0.00 0.00 0.00 0.00 0.00 0.00 0.00 0.00 0.01 0.01 0.02 0.04 0.18 0.34 0.30 0.24 0.11 0.03 0.00 0.00 0.01 0.02 0.02
0.03 0.01 0.01 0.00 0.01 0.02 0.01 0.02 0.06 0.10 0.07 0.05 0.04 0.02 0.00 0.01 0.02 0.01 0.00 0.00 0.00 0.00 0.00 0.00 0.00 0.00 0.00 0.00 0.01 0.03 0.06 0.23 0.33 0.42 0.34 0.14 0.02 0.00 0.01 0.05 0.16 0.14 0.09
0.06 0.02 0.02 0.02 0.02 0.04 0.09 0.09 0.05 0.07 0.09 0.10 0.09 0.08 0.07 0.03 0.00 0.00 0.00 0.00 0.00 0.00 0.00 0.00 0.00 0.00 0.00 0.00 0.01 0.06 0.19 0.25 0.24 0.14 0.04 0.01 0.02 0.05 0.23 0.23 0.13 0.12 0.07
0.19 0.25 0.17 0.14 0.21 0.16 0.14 0.18 0.28 0.27 0.17 0.07 0.04 0.01 0.00 0.00 0.00 0.00 0.00 0.00 0.00 0.00 0.00 0.00 0.00 0.00 0.01 0.03 0.08 0.21 0.15 0.09 0.01 0.00 0.01 0.03 0.08 0.09 0.08 0.15 0.13 0.10 0.05
0.26 0.37 0.48 0.47 0.43 0.43 0.31 0.23 0.18 0.10 0.04 0.01 0.00 0.00 0.00 0.00 0.00 0.00 0.00 0.00 0.00 0.00 0.00 0.00 0.02 0.02 0.02 0.10 0.16 0.22 0.07 0.00 0.00 0.01 0.07 0.05 0.02 0.01 0.01 0.13 0.20 0.19 0.12
0.57 0.53 0.38 0.47 0.38 0.29 0.20 0.10 0.01 0.00 0.00 0.00 0.00 0.00 0.00 0.00 0.00 0.00 0.00 0.00 0.00 0.00 0.00 0.00 0.01 0.02 0.05 0.21 0.14 0.04 0.01 0.01 0.07 0.06 0.01 0.00 0.00 0.00 0.01 0.04 0.19 0.54 0.25
0.49 0.66 0.35 0.19 0.06 0.00 0.00 0.00 0.00 0.00 0.00 0.00 0.00 0.00 0.00 0.00 0.00 0.00 0.00 0.00 0.00 0.01 0.01 0.01 0.00 0.05 0.16 0.12 0.03 0.00 0.02 0.03 0.03 0.00 0.00 0.00 0.00 0.01 0.01 0.01 0.07 0.47 0.71
0.13 0.08 0.05 0.00 0.00 0.00 0.00 0.00 0.00 0.00 0.00 0.00 0.00 0.00 0.00 0.00 0.00 0.00 0.00 0.01 0.03 0.03 0.02 0.01 0.04 0.13 0.07 0.00 0.00 0.02 0.03 0.02 0.00 0.00 0.01 0.01 0.02 0.02 0.01 0.01 0.02 0.06 0.20
0.00 0.00 0.00 0.00 0.00 0.00 0.00 0.00 0.00 0.00 0.00 0.00 0.00 0.00 0.00 0.00 0.00 0.00 0.00 0.01 0.03 0.04 0.03 0.07 0.09 0.02 0.00 0.00 0.00 0.01 0.01 0.00 0.01 0.05 0.05 0.03 0.03 0.03 0.03 0.03 0.02 0.01 0.03
0.00 0.00 0.00 0.00 0.00 0.00 0.00 0.00 0.00 0.00 0.00 0.00 0.00 0.00 0.00 0.00 0.00 0.00 0.00 0.01 0.02 0.03 0.05 0.11 0.02 0.00 0.00 0.00 0.00 0.00 0.00 0.00 0.04 0.09 0.09 0.04 0.02 0.03 0.05 0.07 0.15 0.06 0.16
0.00 0.00 0.00 0.00 0.00 0.00 0.00 0.00 0.00 0.00 0.00 0.00 0.00 0.00 0.00 0.00 0.00 0.01 0.02 0.02 0.03 0.05 0.04 0.00 0.00 0.00 0.00 0.00 0.00 0.00 0.00 0.00 0.04 0.06 0.10 0.10 0.06 0.05 0.05 0.05 0.18 0.24 0.28
0.00 0.00 0.00 0.00 0.00 0.00 0.00 0.00 0.00 0.00 0.00 0.00 0.00 0.00 0.00 0.00 0.00 0.01 0.02 0.04 0.06 0.04 0.00 0.00 0.00 0.00 0.00 0.00 0.00 0.01 0.01 0.02 0.06 0.10 0.09 0.10 0.16 0.14 0.15 0.10 0.16 0.25 0.27
0.00 0.00 0.00 0.00 0.00 0.00 0.00 0.00 0.00 0.00 0.00 0.00 0.00 0.00 0.00 0.00 0.00 0.01 0.03 0.04 0.01 0.00 0.00 0.00 0.01 0.01 0.01 0.01 0.01 0.04 0.05 0.04 0.09 0.13 0.15 0.18 0.23 0.17 0.14 0.15 0.15 0.17 0.14
0.00 0.00 0.00 0.00 0.00 0.00 0.00 0.00 0.00 0.00 0.00 0.00 0.00 0.00 0.00 0.00 0.00 0.02 0.02 0.01 0.00 0.00 0.01 0.02 0.02 0.01 0.01 0.03 0.05 0.09 0.11 0.07 0.07 0.10 0.19 0.20 0.20 0.25 0.17 0.16 0.15 0.21 0.21
0.00 0.00 0.00 0.00 0.00 0.00 0.00 0.00 0.00 0.00 0.00 0.00 0.00 0.00 0.00 0.00 0.00 0.01 0.00 0.00 0.01 0.01 0.01 0.01 0.01 0.01 0.03 0.06 0.09 0.12 0.14 0.17 0.22 0.25 0.15 0.17 0.17 0.28 0.16 0.10 0.13 0.12 0.16
0.00 0.00 0.00 0.00 0.00 0.00 0.00 0.00 0.00 0.00 0.00 0.00 0.00 0.00 0.00 0.00 0.01 0.00 0.00 0.00 0.01 0.01 0.01 0.01 0.01 0.01 0.05 0.12 0.15 0.14 0.13 0.08 0.11 0.11 0.13 0.17 0.17 0.23 0.28 0.19 0.14 0.18 0.12
0.00 0.00 0.00 0.00 0.00 0.00 0.00 0.00 0.00 0.00 0.00 0.00 0.00 0.00 0.00 0.01 0.00 0.00 0.00 0.01 0.01 0.01 0.02 0.02 0.01 0.03 0.09 0.13 0.14 0.11 0.10 0.07 0.11 0.19 0.18 0.18 0.21 0.26 0.17 0.18 0.15 0.15 0.18
0.00 0.00 0.00 0.00 0.00 0.00 0.00 0.00 0.00 0.00 0.00 0.00 0.00 0.00 0.00 0.00 0.00 0.00 0.01 0.01 0.00 0.01 0.01 0.02 0.03 0.07 0.21 0.31 0.30 0.22 0.08 0.06 0.10 0.18 0.15 0.16 0.19 0.16 0.14 0.13 0.13 0.19 0.17
0.00 0.00 0.00 0.00 0.00 0.00 0.00 0.00 0.00 0.00 0.00 0.00 0.00 0.00 0.00 0.00 0.00 0.00 0.01 0.00 0.01 0.01 0.00 0.01 0.08 0.11 0.09 0.19 0.29 0.43 0.41 0.26 0.28 0.28 0.31 0.24 0.23 0.25 0.25 0.24 0.20 0.16 0.07
0.00 0.00 0.00 0.00 0.00 0.00 0.00 0.00 0.00 0.00 0.00 0.00 0.00 0.00 0.00 0.00 0.00 0.00 0.00 0.01 0.01 0.00 0.00 0.02 0.11 0.17 0.16 0.15 0.19 0.27 0.42 0.49 0.51 0.62 0.78 0.70 0.41 0.26 0.20 0.13 0.12 0.12 0.05
0.00 0.00 0.00 0.00 0.00 0.00 0.00 0.00 0.00 0.00 0.00 0.00 0.00 0.00 0.01 0.01 0.01 0.01 0.01 0.01 0.01 0.00 0.00 0.03 0.11 0.20 0.20 0.22 0.23 0.24 0.25 0.36 0.52 0.51 0.29 0.24 0.20 0.15 0.15 0.09 0.08 0.06 0.03
0.00 0.00 0.00 0.00 0.00 0.00 0.00 0.00 0.00 0.00 0.01 0.01 0.01 0.01 0.01 0.01 0.01 0.02 0.01 0.01 0.01 0.00 0.01 0.03 0.09 0.16 0.17 0.16 0.15 0.19 0.21 0.31 0.30 0.20 0.12 0.11 0.10 0.07 0.07 0.06 0.03 0.03 0.02

GFSGL_prec_precacc_039.txt.gz
Total_Precipitation_Accumulation
0.02 0.00 0.00 0.02 0.04 0.03 0.03 0.03 0.04 0.05 0.03 0.03 0.03 0.03 0.02 0.01 0.01 0.02 0.03 0.04 0.04 0.03 0.02 0.01 0.00 0.00 0.00 0.00 0.00 0.00 0.00 0.00 0.00 0.00 0.00 0.00 0.00 0.00 0.00 0.00 0.00 0.01 0.02
0.01 0.00 0.01 0.04 0.04 0.04 0.04 0.04 0.05 0.06 0.05 0.04 0.03 0.02 0.01 0.02 0.05 0.09 0.13 0.12 0.10 0.08 0.07 0.05 0.00 0.00 0.00 0.00 0.00 0.00 0.00 0.00 0.00 0.02 0.00 0.00 0.00 0.00 0.00 0.00 0.01 0.02 0.01
0.00 0.01 0.02 0.03 0.03 0.04 0.05 0.05 0.05 0.05 0.04 0.03 0.02 0.02 0.04 0.07 0.08 0.07 0.05 0.03 0.02 0.02 0.02 0.01 0.00 0.00 0.00 0.00 0.00 0.00 0.00 0.00 0.01 0.03 0.01 0.00 0.00 0.03 0.04 0.01 0.00 0.00 0.00
0.06 0.06 0.04 0.02 0.03 0.03 0.04 0.05 0.05 0.03 0.02 0.02 0.02 0.03 0.02 0.02 0.02 0.02 0.03 0.02 0.02 0.02 0.02 0.02 0.03 0.03 0.01 0.00 0.00 0.00 0.01 0.01 0.01 0.02 0.12 0.13 0.13 0.07 0.03 0.01 0.00 0.00 0.00
0.16 0.15 0.09 0.06 0.05 0.03 0.02 0.03 0.03 0.02 0.01 0.01 0.02 0.04 0.05 0.06 0.07 0.08 0.11 0.16 0.22 0.22 0.18 0.10 0.04 0.01 0.00 0.00 0.01 0.01 0.02 0.04 0.18 0.34 0.30 0.24 0.11 0.03 0.00 0.00 0.01 0.02 0.02
0.15 0.11 0.13 0.09 0.05 0.08 0.04 0.03 0.07 0.11 0.09 0.11 0.12 0.09 0.08 0.11 0.21 0.26 0.28 0.27 0.20 0.13 0.07 0.03 0.01 0.00 0.00 0.00 0.01 0.03 0.06 0.23 0.33 0.42 0.34 0.14 0.02 0.00 0.01 0.05 0.16 0.14 0.10
0.11 0.05 0.14 0.18 0.07 0.10 0.23 0.16 0.09 0.11 0.18 0.23 0.27 0.36 0.43 0.44 0.42 0.32 0.19 0.09 0.04 0.02 0.01 0.00 0.00 0.00 0.00 0.00 0.01 0.06 0.19 0.25 0.24 0.14 0.04 0.01 0.02 0.05 0.23 0.23 0.14 0.15 0.09
0.55 0.53 0.63 0.30 0.33 0.25 0.33 0.61 0.62 0.54 0.47 0.44 0.46 0.43 0.35 0.28 0.18 0.11 0.05 0.03 0.01 0.01 0.00 0.00 0.00 0.00 0.01 0.03 0.08 0.21 0.15 0.09 0.01 0.00 0.01 0.03 0.08 0.09 0.10 0.22 0.19 0.12 0.05
0.56 0.71 0.79 0.65 0.68 0.74 0.64 0.56 0.67 0.60 0.51 0.38 0.28 0.16 0.07 0.03 0.01 0.01 0.00 0.00 0.00 0.00 0.00 0.00 0.02 0.02 0.02 0.10 0.16 0.22 0.07 0.00 0.00 0.01 0.07 0.05 0.02 0.01 0.01 0.13 0.20 0.19 0.13
0.62 0.59 0.53 0.68 0.69 0.64 0.65 0.55 0.36 0.22 0.18 0.10 0.04 0.02 0.00 0.00 0.00 0.00 0.00 0.00 0.00 0.00 0.00 0.00 0.01 0.02 0.05 0.21 0.14 0.04 0.01 0.01 0.07 0.06 0.01 0.00 0.00 0.00 0.01 0.04 0.19 0.56 0.26
0.63 0.94 0.80 0.66 0.53 0.29 0.21 0.11 0.04 0.01 0.01 0.01 0.00 0.00 0.00 0.00 0.00 0.00 0.00 0.00 0.00 0.01 0.01 0.01 0.00 0.05 0.16 0.13 0.04 0.00 0.02 0.04 0.03 0.00 0.00 0.00 0.00 0.01 0.01 0.01 0.07 0.47 0.75
0.35 0.35 0.42 0.18 0.08 0.05 0.02 0.00 0.00 0.00 0.00 0.00 0.00 0.00 0.00 0.00 0.00 0.00 0.00 0.01 0.03 0.03 0.02 0.01 0.04 0.13 0.08 0.00 0.00 0.02 0.03 0.02 0.00 0.00 0.01 0.01 0.02 0.02 0.01 0.01 0.02 0.06 0.20
0.03 0.01 0.01 0.01 0.01 0.00 0.00 0.00 0.00 0.00 0.00 0.00 0.00 0.00 0.00 0.00 0.00 0.00 0.00 0.01 0.03 0.04 0.03 0.07 0.09 0.02 0.00 0.00 0.00 0.01 0.01 0.00 0.01 0.05 0.05 0.03 0.03 0.03 0.03 0.03 0.02 0.01 0.03
0.00 0.00 0.00 0.00 0.00 0.00 0.00 0.00 0.00 0.00 0.00 0.00 0.00 0.00 0.00 0.00 0.00 0.00 0.00 0.01 0.02 0.03 0.05 0.11 0.02 0.00 0.00 0.00 0.00 0.00 0.00 0.00 0.04 0.09 0.09 0.04 0.02 0.03 0.05 0.07 0.16 0.06 0.17
0.00 0.00 0.00 0.00 0.00 0.00 0.00 0.00 0.00 0.00 0.00 0.00 0.00 0.00 0.00 0.00 0.00 0.01 0.02 0.02 0.03 0.05 0.05 0.00 0.00 0.00 0.00 0.00 0.00 0.00 0.00 0.00 0.04 0.06 0.11 0.11 0.06 0.05 0.05 0.05 0.18 0.25 0.30
0.00 0.00 0.00 0.00 0.00 0.00 0.00 0.00 0.00 0.00 0.00 0.00 0.00 0.00 0.00 0.00 0.00 0.01 0.02 0.04 0.06 0.04 0.00 0.00 0.00 0.00 0.00 0.00 0.00 0.01 0.01 0.02 0.06 0.10 0.09 0.11 0.17 0.15 0.16 0.11 0.16 0.26 0.29
0.00 0.00 0.00 0.00 0.00 0.00 0.00 0.00 0.00 0.00 0.00 0.00 0.00 0.00 0.00 0.00 0.00 0.01 0.03 0.04 0.01 0.00 0.00 0.00 0.01 0.01 0.01 0.01 0.01 0.04 0.05 0.04 0.09 0.14 0.16 0.18 0.24 0.19 0.14 0.16 0.16 0.18 0.15
0.00 0.00 0.00 0.00 0.00 0.00 0.00 0.00 0.00 0.00 0.00 0.00 0.00 0.00 0.00 0.00 0.00 0.02 0.02 0.01 0.00 0.00 0.01 0.02 0.02 0.01 0.01 0.03 0.05 0.10 0.12 0.07 0.07 0.11 0.20 0.21 0.22 0.27 0.18 0.17 0.16 0.23 0.25
0.00 0.00 0.00 0.00 0.00 0.00 0.00 0.00 0.00 0.00 0.00 0.00 0.00 0.00 0.00 0.00 0.00 0.01 0.00 0.00 0.01 0.01 0.01 0.01 0.01 0.01 0.03 0.06 0.09 0.12 0.14 0.17 0.23 0.26 0.16 0.18 0.18 0.31 0.18 0.11 0.14 0.12 0.18
0.00 0.00 0.00 0.00 0.00 0.00 0.00 0.00 0.00 0.00 0.00 0.00 0.00 0.00 0.00 0.00 0.01 0.00 0.00 0.00 0.01 0.01 0.01 0.01 0.01 0.01 0.06 0.12 0.15 0.14 0.14 0.08 0.11 0.12 0.14 0.18 0.19 0.25 0.31 0.22 0.16 0.21 0.14
0.00 0.00 0.00 0.00 0.00 0.00 0.00 0.00 0.00 0.00 0.00 0.00 0.00 0.00 0.00 0.01 0.00 0.00 0.00 0.01 0.01 0.01 0.02 0.02 0.01 0.04 0.10 0.13 0.15 0.12 0.11 0.08 0.11 0.20 0.19 0.20 0.23 0.27 0.18 0.19 0.16 0.16 0.21
0.00 0.00 0.00 0.00 0.00 0.00 0.00 0.00 0.00 0.00 0.00 0.00 0.00 0.00 0.00 0.00 0.00 0.00 0.01 0.01 0.00 0.01 0.01 0.03 0.04 0.07 0.22 0.32 0.32 0.23 0.09 0.07 0.11 0.19 0.16 0.17 0.20 0.17 0.16 0.15 0.17 0.22 0.18
0.00 0.00 0.00 0.00 0.00 0.00 0.00 0.00 0.00 0.00 0.00 0.00 0.00 0.00 0.00 0.00 0.00 0.00 0.01 0.00 0.01 0.01 0.00 0.01 0.08 0.12 0.09 0.20 0.31 0.47 0.44 0.27 0.29 0.30 0.35 0.26 0.26 0.30 0.31 0.29 0.23 0.18 0.10
0.00 0.00 0.00 0.00 0.00 0.00 0.00 0.00 0.00 0.00 0.00 0.00 0.00 0.00 0.00 0.00 0.00 0.00 0.00 0.01 0.01 0.00 0.00 0.02 0.12 0.18 0.17 0.16 0.20 0.28 0.44 0.51 0.55 0.67 0.91 0.87 0.53 0.31 0.24 0.16 0.13 0.14 0.08
0.00 0.00 0.00 0.00 0.00 0.00 0.00 0.00 0.00 0.00 0.00 0.00 0.00 0.00 0.01 0.01 0.01 0.01 0.01 0.01 0.01 0.01 0.00 0.03 0.12 0.20 0.21 0.23 0.24 0.25 0.26 0.37 0.57 0.58 0.41 0.34 0.24 0.17 0.17 0.12 0.11 0.10 0.05
0.00 0.00 0.00 0.00 0.00 0.00 0.00 0.00 0.00 0.00 0.01 0.01 0.01 0.01 0.01 0.01 0.01 0.02 0.01 0.01 0.01 0.00 0.01 0.03 0.09 0.16 0.18 0.16 0.16 0.19 0.22 0.32 0.32 0.24 0.17 0.14 0.13 0.10 0.09 0.10 0.06 0.06 0.04